�N����,����,�~����,�C��,���x,�C��,����,���ϕ���,�ő�u�ԕ���,�ő厞����,���˗�,�I�_���x,�n�����x,�ő啗���N��,DTYPE
"22/10/22","00:10",0.0,14.9,89.5,1019.4,281.8,0.8,1.6,315.6,0.00,13.2,17.6,"00:00:48",1
"22/10/22","00:20",0.0,14.9,89.7,1019.4,313.1,1.3,2.5,325.4,0.00,13.3,17.8,"00:12:32",1
"22/10/22","00:30",0.0,14.9,89.8,1019.0,291.8,1.1,1.7,317.5,0.00,13.3,17.4,"00:21:52",1
"22/10/22","00:40",0.0,14.8,89.9,1018.7,297.7,1.0,1.4,316.3,0.00,13.2,17.7,"00:33:28",1
"22/10/22","00:50",0.0,14.8,90.0,1018.5,300.2,0.8,1.9,328.7,0.00,13.2,17.6,"00:40:48",1
"22/10/22","01:00",0.0,14.7,90.3,1019.2,311.0,1.2,1.9,323.7,0.00,13.2,17.6,"00:53:52",1
"22/10/22","01:10",0.0,14.8,90.4,1019.0,325.2,1.1,1.8,334.1,0.00,13.3,17.6,"01:01:52",1
"22/10/22","01:20",0.0,14.7,90.6,1019.4,297.0,1.0,1.2,308.5,0.00,13.2,17.4,"01:19:52",1
"22/10/22","01:30",0.0,14.8,90.8,1019.4,304.2,1.2,2.1,312.0,0.00,13.4,17.4,"01:23:04",1
"22/10/22","01:40",0.0,15.0,90.7,1019.2,315.4,1.1,1.7,337.3,0.00,13.5,17.5,"01:33:28",1
"22/10/22","01:50",0.0,14.9,90.8,1019.0,277.5,1.1,1.8,313.5,0.00,13.5,17.6,"01:41:12",1
"22/10/22","02:00",0.0,14.8,91.0,1019.0,302.6,1.1,1.6,319.4,0.00,13.4,17.5,"01:54:08",1
"22/10/22","02:10",0.0,14.9,91.0,1019.0,318.9,1.3,1.8,323.2,0.00,13.5,17.5,"02:03:52",1
"22/10/22","02:20",0.0,14.9,91.1,1019.2,285.3,1.1,1.7,269.9,0.00,13.5,17.6,"02:10:56",1
"22/10/22","02:30",0.0,14.9,91.2,1019.2,284.4,1.1,1.7,308.3,0.00,13.5,17.4,"02:27:12",1
"22/10/22","02:40",0.0,15.0,91.1,1019.0,302.0,0.7,1.8,324.8,0.00,13.6,17.5,"02:32:56",1
"22/10/22","02:50",0.0,14.8,91.2,1019.0,286.1,0.8,1.2,263.0,0.00,13.4,17.5,"02:44:48",1
"22/10/22","03:00",0.0,14.7,91.4,1019.0,297.2,1.2,1.7,316.4,0.00,13.4,17.3,"02:57:28",1
"22/10/22","03:10",0.0,14.8,91.4,1018.7,324.1,1.3,1.8,320.1,0.00,13.5,17.5,"03:00:48",1
"22/10/22","03:20",0.0,14.6,91.6,1018.7,310.2,1.3,1.8,317.9,0.00,13.3,17.5,"03:11:12",1
"22/10/22","03:30",0.0,14.4,91.8,1018.5,298.7,1.1,1.4,303.3,0.00,13.1,17.6,"03:26:08",1
"22/10/22","03:40",0.0,14.5,92.1,1018.2,277.5,1.1,1.6,270.7,0.00,13.3,17.5,"03:31:04",1
"22/10/22","03:50",0.0,14.5,92.2,1018.2,293.4,1.0,1.6,308.8,0.00,13.3,17.3,"03:47:04",1
"22/10/22","04:00",0.0,14.6,92.3,1018.0,293.3,1.2,1.4,311.3,0.00,13.4,17.2,"03:52:08",1
"22/10/22","04:10",0.0,14.5,92.4,1017.5,294.3,0.5,1.7,310.3,0.00,13.3,17.4,"04:09:20",1
"22/10/22","04:20",0.0,14.5,92.6,1017.8,318.3,1.1,2.0,323.6,0.00,13.4,17.5,"04:14:08",1
"22/10/22","04:30",0.0,14.3,92.7,1017.8,282.5,1.0,1.3,269.6,0.00,13.2,17.3,"04:25:44",1
"22/10/22","04:40",0.0,14.3,93.0,1018.2,311.7,0.7,1.3,311.4,0.00,13.2,17.4,"04:30:08",1
"22/10/22","04:50",0.0,14.3,93.1,1017.5,313.3,1.1,2.2,319.8,0.00,13.2,17.4,"04:49:36",1
"22/10/22","05:00",0.0,14.3,93.2,1017.1,277.9,1.1,1.6,306.8,0.00,13.3,17.1,"04:50:16",1
"22/10/22","05:10",0.0,14.3,93.5,1018.2,277.1,1.1,1.7,256.3,0.00,13.3,17.5,"05:00:56",1
"22/10/22","05:20",0.0,14.4,93.5,1017.8,294.4,0.7,1.9,265.4,0.00,13.4,17.3,"05:14:40",1
"22/10/22","05:30",0.0,14.3,93.6,1017.8,309.6,1.0,1.6,323.3,0.00,13.3,17.2,"05:25:44",1
"22/10/22","05:40",0.0,14.1,93.7,1018.0,291.3,1.0,1.4,301.0,0.00,13.1,17.2,"05:31:44",1
"22/10/22","05:50",0.0,14.2,93.9,1017.5,300.6,0.8,1.6,318.8,0.00,13.3,17.3,"05:42:08",1
"22/10/22","06:00",0.0,14.2,94.0,1017.5,271.9,0.7,1.4,306.4,0.00,13.3,17.3,"05:57:04",1
"22/10/22","06:10",0.0,14.1,94.1,1017.3,309.4,1.2,2.1,333.3,0.00,13.2,17.2,"06:08:32",1
"22/10/22","06:20",0.0,14.0,94.3,1017.5,303.8,1.2,1.8,312.6,0.00,13.1,17.2,"06:13:30",1
"22/10/22","06:30",0.0,13.9,94.4,1017.5,286.3,0.8,1.2,272.9,0.00,13.1,17.3,"06:24:48",1
"22/10/22","06:40",0.0,13.9,94.6,1017.5,304.3,1.1,1.9,318.1,0.00,13.1,17.2,"06:38:32",1
"22/10/22","06:50",0.0,13.9,94.7,1017.1,308.0,1.1,1.8,330.6,0.00,13.1,17.2,"06:42:00",1
"22/10/22","07:00",0.0,13.9,94.8,1016.8,281.0,1.0,1.4,313.7,0.00,13.1,17.3,"06:53:28",1
"22/10/22","07:10",0.0,14.1,94.9,1017.3,298.3,0.8,1.9,336.2,0.00,13.3,17.0,"07:08:10",1
"22/10/22","07:20",0.0,14.2,95.0,1017.1,320.5,1.2,1.9,343.4,0.00,13.5,17.2,"07:10:40",1
"22/10/22","07:30",0.0,14.3,95.1,1017.1,272.5,0.7,1.0,274.8,0.00,13.6,17.3,"07:20:32",1
"22/10/22","07:40",0.0,14.5,95.2,1017.1,290.4,0.8,1.1,301.9,0.01,13.8,17.3,"07:36:48",1
"22/10/22","07:50",0.0,14.9,95.2,1017.3,265.9,0.8,1.8,250.0,0.01,14.2,17.1,"07:47:04",1
"22/10/22","08:00",0.0,15.1,95.2,1017.3,311.5,0.8,1.3,325.6,0.03,14.4,17.1,"07:58:16",1
"22/10/22","08:10",0.0,15.5,95.2,1016.8,287.4,0.5,1.1,337.1,0.04,14.8,17.2,"08:00:48",1
"22/10/22","08:20",0.0,15.9,95.1,1017.1,255.3,0.3,0.8,257.6,0.05,15.2,17.2,"08:16:48",1
"22/10/22","08:30",0.0,16.1,95.0,1017.1,249.8,0.7,1.2,254.0,0.05,15.3,17.3,"08:28:32",1
"22/10/22","08:40",0.0,16.0,94.8,1017.8,253.8,1.1,1.7,247.4,0.06,15.2,17.0,"08:32:00",1
"22/10/22","08:50",0.0,16.3,94.3,1018.0,331.2,0.6,1.4,334.2,0.07,15.4,17.2,"08:49:20",1
"22/10/22","09:00",0.0,16.8,94.2,1017.5,342.2,0.6,1.2,323.8,0.09,15.9,17.1,"08:52:24",1
"22/10/22","09:10",0.0,17.0,93.4,1018.2,322.7,1.1,1.6,326.6,0.10,16.0,17.2,"09:04:48",1
"22/10/22","09:20",0.0,17.3,92.9,1017.8,286.1,0.2,0.9,328.0,0.09,16.2,17.3,"09:10:24",1
"22/10/22","09:30",0.0,17.3,91.8,1018.2,295.7,1.0,1.6,317.6,0.08,16.0,17.3,"09:26:32",1
"22/10/22","09:40",0.0,17.4,90.8,1018.2,316.3,1.1,1.6,316.0,0.08,15.9,17.4,"09:30:48",1
"22/10/22","09:50",0.0,18.0,89.6,1017.8,318.1,1.2,2.0,337.4,0.10,16.3,17.3,"09:40:32",1
"22/10/22","10:00",0.0,18.2,88.1,1017.8,275.1,1.0,1.3,256.5,0.09,16.2,17.2,"09:54:08",1
"22/10/22","10:10",0.0,18.6,87.2,1017.3,276.7,0.6,0.8,252.0,0.09,16.5,17.3,"10:00:16",1
"22/10/22","10:20",0.0,19.2,86.0,1017.1,319.5,0.6,1.0,303.4,0.14,16.8,17.3,"10:11:36",1
"22/10/22","10:30",0.0,19.5,84.1,1016.8,313.5,0.3,1.3,316.4,0.12,16.8,17.3,"10:20:24",1
"22/10/22","10:40",0.0,19.9,82.2,1016.8,315.9,0.3,1.1,313.3,0.14,16.8,17.5,"10:39:12",1
"22/10/22","10:50",0.0,20.0,80.2,1016.6,254.0,0.3,1.1,247.5,0.14,16.5,17.5,"10:49:44",1
"22/10/22","11:00",0.0,20.4,77.5,1016.6,264.5,0.7,1.8,252.5,0.23,16.4,17.4,"10:54:24",1
"22/10/22","11:10",0.0,21.0,75.2,1016.1,267.7,0.6,2.2,225.5,0.26,16.5,17.7,"11:01:52",1
"22/10/22","11:20",0.0,21.2,71.6,1016.1,246.0,0.7,1.7,235.2,0.27,15.9,17.6,"11:14:24",1
"22/10/22","11:30",0.0,21.6,70.4,1016.1,287.3,0.5,1.1,51.4,0.21,16.0,17.7,"11:29:04",1
"22/10/22","11:40",0.0,21.8,70.0,1015.6,174.1,0.5,1.2,33.4,0.24,16.1,17.7,"11:30:32",1
"22/10/22","11:50",0.0,22.3,68.5,1015.4,303.7,0.5,1.3,20.2,0.29,16.3,17.7,"11:48:40",1
"22/10/22","12:00",0.0,22.9,67.1,1014.9,11.5,0.6,2.2,339.4,0.39,16.5,17.8,"11:59:28",1
"22/10/22","12:10",0.0,23.6,65.0,1014.9,87.6,1.0,2.0,56.5,0.56,16.7,17.9,"12:01:44",1
"22/10/22","12:20",0.0,23.8,64.7,1014.5,229.1,0.8,2.0,200.0,0.50,16.8,17.9,"12:16:24",1
"22/10/22","12:30",0.0,24.6,63.7,1014.0,80.7,0.6,1.8,50.0,0.50,17.3,17.9,"12:26:32",1
"22/10/22","12:40",0.0,24.7,63.3,1013.3,150.7,1.0,3.4,220.4,0.48,17.3,17.9,"12:39:12",1
"22/10/22","12:50",0.0,24.7,64.4,1013.3,165.1,1.1,3.1,206.6,0.50,17.6,17.9,"12:40:08",1
"22/10/22","13:00",0.0,25.2,62.6,1013.5,150.3,1.1,2.4,201.1,0.52,17.6,18.1,"12:59:36",1
"22/10/22","13:10",0.0,24.8,63.1,1013.0,191.5,2.0,3.5,218.3,0.49,17.3,18.3,"13:00:40",1
"22/10/22","13:20",0.0,24.5,62.8,1012.6,186.0,2.0,4.3,205.2,0.48,17.0,18.3,"13:15:52",1
"22/10/22","13:30",0.0,24.4,63.5,1012.3,187.2,1.5,2.8,208.7,0.35,17.1,18.3,"13:21:52",1
"22/10/22","13:40",0.0,24.2,63.1,1012.8,207.3,1.5,2.9,192.4,0.28,16.8,18.4,"13:38:08",1
"22/10/22","13:50",0.0,24.1,64.5,1012.3,168.9,0.8,2.8,236.9,0.20,17.0,18.7,"13:49:44",1
"22/10/22","14:00",0.0,24.0,66.0,1012.6,203.6,1.0,2.8,228.5,0.15,17.3,18.6,"13:55:28",1
"22/10/22","14:10",0.0,24.1,67.2,1012.3,152.1,0.7,2.4,131.7,0.14,17.7,18.8,"14:00:32",1
"22/10/22","14:20",0.0,24.4,66.6,1012.1,187.6,1.5,2.7,212.6,0.25,17.8,18.9,"14:18:32",1
"22/10/22","14:30",0.0,24.0,66.4,1012.1,200.8,2.2,5.0,231.5,0.19,17.4,19.1,"14:26:56",1
"22/10/22","14:40",0.0,24.6,67.3,1011.9,196.6,2.2,4.8,231.9,0.32,18.2,18.8,"14:38:32",1
"22/10/22","14:50",0.0,24.2,66.8,1011.9,199.5,2.7,5.9,227.7,0.24,17.7,19.1,"14:40:32",1
"22/10/22","15:00",0.0,23.7,67.2,1011.6,202.4,2.0,4.3,230.1,0.17,17.3,19.1,"14:51:20",1
"22/10/22","15:10",0.0,24.1,67.5,1011.6,189.7,1.3,3.1,230.3,0.25,17.8,19.0,"15:04:00",1
"22/10/22","15:20",0.0,24.5,66.1,1011.9,187.4,1.2,3.1,208.2,0.18,17.8,19.3,"15:18:08",1
"22/10/22","15:30",0.0,23.7,66.7,1012.1,201.4,1.7,4.1,230.6,0.10,17.2,19.2,"15:24:40",1
"22/10/22","15:40",0.0,23.5,68.0,1011.6,190.8,1.1,3.4,215.1,0.08,17.3,19.3,"15:36:16",1
"22/10/22","15:50",0.0,23.3,68.9,1011.4,190.6,1.7,3.5,239.3,0.07,17.3,19.4,"15:42:24",1
"22/10/22","16:00",0.0,23.1,69.6,1011.6,191.2,1.1,1.9,223.0,0.07,17.3,19.1,"15:53:04",1
"22/10/22","16:10",0.0,23.3,70.0,1011.6,195.0,1.2,2.5,191.3,0.06,17.6,19.2,"16:00:40",1
"22/10/22","16:20",0.0,23.2,70.0,1011.9,232.4,1.0,3.5,205.6,0.05,17.5,19.4,"16:11:12",1
"22/10/22","16:30",0.0,23.3,69.7,1011.6,268.3,0.7,2.8,238.6,0.06,17.5,19.2,"16:24:16",1
"22/10/22","16:40",0.0,23.4,69.4,1011.6,296.4,0.8,2.2,328.1,0.06,17.5,19.3,"16:31:36",1
"22/10/22","16:50",0.0,23.2,69.2,1011.9,277.0,0.7,1.8,231.5,0.03,17.3,19.3,"16:47:20",1
"22/10/22","17:00",0.0,23.1,69.4,1011.6,296.0,1.0,3.2,354.1,0.03,17.2,19.2,"16:59:28",1
"22/10/22","17:10",0.0,23.1,69.6,1011.6,319.7,1.3,2.1,343.0,0.02,17.3,19.5,"17:00:16",1
"22/10/22","17:20",0.0,22.5,70.8,1011.9,292.7,0.8,1.9,240.3,0.00,17.0,19.3,"17:10:32",1
"22/10/22","17:30",0.0,22.2,72.6,1011.6,320.1,1.1,1.7,328.6,0.00,17.1,19.4,"17:29:28",1
"22/10/22","17:40",0.0,21.5,75.4,1011.6,298.3,1.1,2.1,336.4,0.00,17.0,19.4,"17:31:04",1
"22/10/22","17:50",0.0,21.0,77.9,1011.9,307.8,1.2,1.8,304.6,0.00,17.0,19.4,"17:48:48",1
"22/10/22","18:00",0.0,20.4,79.7,1011.6,311.3,1.2,2.2,313.5,0.00,16.8,19.4,"17:55:44",1
"22/10/22","18:10",0.0,19.8,80.9,1011.9,327.3,1.0,1.9,320.7,0.00,16.5,19.3,"18:01:28",1
"22/10/22","18:20",0.0,19.1,82.0,1011.9,265.3,0.3,0.8,279.0,0.00,16.0,19.2,"18:10:24",1
"22/10/22","18:30",0.0,18.6,83.4,1012.3,313.2,0.7,1.3,312.0,0.00,15.8,19.3,"18:24:24",1
"22/10/22","18:40",0.0,18.1,84.6,1012.1,306.7,0.6,1.1,332.1,0.00,15.5,19.2,"18:38:24",1
"22/10/22","18:50",0.0,17.9,85.7,1011.9,285.6,0.7,1.2,340.2,0.00,15.5,19.3,"18:40:40",1
"22/10/22","19:00",0.0,17.8,86.6,1012.3,278.5,0.8,1.2,267.4,0.00,15.6,19.2,"18:53:36",1
"22/10/22","19:10",0.0,17.7,87.6,1012.1,279.0,1.0,1.3,263.1,0.00,15.7,19.2,"19:01:04",1
"22/10/22","19:20",0.0,17.7,88.4,1012.3,325.6,1.0,1.6,340.1,0.00,15.8,19.2,"19:12:24",1
"22/10/22","19:30",0.0,17.2,89.2,1012.1,310.0,1.1,1.6,329.9,0.00,15.4,19.1,"19:20:16",1
"22/10/22","19:40",0.0,17.3,90.0,1012.3,307.4,1.3,2.2,312.7,0.00,15.7,18.9,"19:35:20",1
"22/10/22","19:50",0.0,17.3,90.5,1012.3,291.1,1.1,2.0,326.8,0.00,15.8,18.9,"19:43:04",1
"22/10/22","20:00",0.0,17.3,90.9,1012.6,306.9,1.3,2.7,343.8,0.00,15.8,19.0,"19:59:28",1
"22/10/22","20:10",0.0,17.3,91.1,1012.6,305.2,1.3,2.2,326.1,0.00,15.9,18.9,"20:09:20",1
"22/10/22","20:20",0.0,17.2,91.2,1012.6,318.8,1.3,2.2,313.5,0.00,15.8,18.9,"20:11:36",1
"22/10/22","20:30",0.0,16.7,91.4,1012.3,310.4,1.0,1.7,337.3,0.00,15.3,19.0,"20:21:44",1
"22/10/22","20:40",0.0,16.7,91.7,1012.6,277.3,1.0,1.3,266.0,0.00,15.4,18.9,"20:33:44",1
"22/10/22","20:50",0.0,16.7,91.9,1012.6,289.8,1.0,1.4,311.5,0.00,15.4,18.7,"20:48:32",1
"22/10/22","21:00",0.0,16.6,92.1,1012.6,312.3,1.1,2.1,331.0,0.00,15.4,18.6,"20:52:16",1
"22/10/22","21:10",0.0,16.4,92.3,1012.6,296.1,1.1,1.7,318.1,0.00,15.2,18.8,"21:07:28",1
"22/10/22","21:20",0.0,16.4,92.4,1012.8,329.0,1.3,2.4,314.3,0.00,15.2,18.7,"21:11:20",1
"22/10/22","21:30",0.0,16.4,92.8,1012.3,331.1,1.2,2.0,328.4,0.00,15.3,18.6,"21:20:56",1
"22/10/22","21:40",0.0,16.2,92.8,1012.6,300.9,0.8,1.8,344.0,0.00,15.1,18.6,"21:32:40",1
"22/10/22","21:50",0.0,15.9,93.1,1012.6,296.9,1.0,1.8,329.3,0.00,14.8,18.7,"21:45:52",1
"22/10/22","22:00",0.0,16.1,93.4,1012.3,290.2,1.2,2.8,336.9,0.00,15.1,18.5,"21:53:20",1
"22/10/22","22:10",0.0,16.2,93.5,1012.3,290.9,1.1,2.0,320.1,0.00,15.2,18.4,"22:04:56",1
"22/10/22","22:20",0.0,16.2,93.6,1012.1,313.4,1.3,2.7,336.8,0.00,15.2,18.7,"22:10:02",1
"22/10/22","22:30",0.0,16.2,93.6,1012.3,321.6,1.1,2.4,327.0,0.00,15.2,18.6,"22:21:20",1
"22/10/22","22:40",0.0,16.0,93.7,1012.6,309.5,1.0,1.9,319.4,0.00,15.0,18.5,"22:32:16",1
"22/10/22","22:50",0.0,15.6,93.8,1012.3,290.0,0.8,1.6,319.6,0.00,14.6,18.3,"22:40:32",1
"22/10/22","23:00",0.0,15.5,94.0,1012.6,304.2,0.8,1.3,310.5,0.00,14.6,18.4,"22:50:24",1
"22/10/22","23:10",0.0,15.2,94.1,1012.1,284.4,0.7,1.0,312.6,0.00,14.3,18.4,"23:00:56",1
"22/10/22","23:20",0.0,14.9,94.2,1012.1,285.6,0.7,1.2,310.0,0.00,14.0,18.4,"23:17:04",1
"22/10/22","23:30",0.0,14.8,94.4,1012.3,311.3,0.6,1.1,312.3,0.00,13.9,18.4,"23:21:44",1
"22/10/22","23:40",0.0,14.6,94.5,1012.3,296.2,0.8,1.3,314.4,0.00,13.8,18.2,"23:35:12",1
"22/10/22","23:50",0.0,14.5,94.6,1012.3,301.9,0.7,1.2,315.3,0.00,13.7,18.3,"23:44:56",1
"22/10/22","24:00",0.0,14.4,94.7,1011.9,308.5,1.0,1.3,318.6,0.00,13.6,18.2,"23:59:28",1
